GW4489 Weather Reports


Display with metric or nautical units.
time (UTC)temp
F
wind
direction
speed
MPH
gust
MPH
rain 1hr
in
rain 24hr
in
rain mn
in
humidity
%
barometer
mb
20260904175010 95 226 2.0 11.0 0.00 0.00 0.00 53 1017.9
20260904174519 96 291 3.0 7.0 0.00 0.00 0.00 50 1017.9
20260904174008 95 273 2.0 7.0 0.00 0.00 0.00 50 1017.9
20260904173509 94 191 2.0 8.0 0.00 0.00 0.00 55 1018.0
20260904173037 93 5 2.0 8.0 0.00 0.00 0.00 56 1018.1
20260904172514 92 329 3.0 14.0 0.00 0.00 0.00 54 1018.2
20260904172012 93 333 6.0 14.0 0.00 0.00 0.00 55 1018.2
20260904171528 94 98 2.0 10.0 0.00 0.00 0.00 51 1018.2
20260904171015 95 343 3.0 10.0 0.00 0.00 0.00 52 1018.2
20260904170504 96 302 4.0 10.0 0.00 0.00 0.00 55 1018.3
20260904170015 95 19 2.0 7.0 0.00 0.00 0.00 54 1018.3
20260904165504 95 219 1.0 6.0 0.00 0.00 0.00 52 1018.4
20260904165007 94 323 2.0 6.0 0.00 0.00 0.00 52 1018.4
20260904164518 94 162 1.0 5.0 0.00 0.00 0.00 53 1018.5
20260904164007 94 340 2.0 7.0 0.00 0.00 0.00 53 1018.6
20260904163507 94 258 3.0 7.0 0.00 0.00 0.00 54 1018.6
20260904163019 94 342 1.0 6.0 0.00 0.00 0.00 52 1018.6
20260904162514 94 54 2.0 6.0 0.00 0.00 0.00 50 1018.6
20260904162012 94 270 1.0 8.0 0.00 0.00 0.00 54 1018.6
20260904161528 94 304 2.0 8.0 0.00 0.00 0.00 51 1018.6
20260904161014 94 338 3.0 5.0 0.00 0.00 0.00 54 1018.6
20260904160516 94 307 2.0 5.0 0.00 0.00 0.00 55 1018.6
20260904160032 94 308 2.0 5.0 0.00 0.00 0.00 56 1018.6
20260904155517 93 299 2.0 7.0 0.00 0.00 0.00 61 1018.6
20260904155018 92 196 3.0 7.0 0.00 0.00 0.00 59 1018.6
20260904154516 93 244 2.0 4.0 0.00 0.00 0.00 59 1018.7
20260904154007 92 311 2.0 4.0 0.00 0.00 0.00 58 1018.7
20260904153509 92 110 2.0 6.0 0.00 0.00 0.00 60 1018.7
20260904153020 91 202 4.0 6.0 0.00 0.00 0.00 60 1018.7
20260904152513 92 219 1.0 4.0 0.00 0.00 0.00 61 1018.7
20260904152009 93 219 0.0 4.0 0.00 0.00 0.00 60 1018.7
20260904151526 91 219 0.0 5.0 0.00 0.00 0.00 61 1018.6
20260904151014 91 217 2.0 5.0 0.00 0.00 0.00 60 1018.7
20260904150517 90 217 1.0 5.0 0.00 0.00 0.00 62 1018.7
20260904150035 90 212 3.0 5.0 0.00 0.00 0.00 64 1018.7
20260904145516 90 192 0.0 0.0 0.00 0.00 0.00 67 1018.7
20260904145013 90 196 0.0 0.0 0.00 0.00 0.00 66 1018.7
20260904144534 90 196 0.0 0.0 0.00 0.00 0.00 64 1018.7
20260904144019 90 196 0.0 0.0 0.00 0.00 0.00 67 1018.7
20260904143517 89 261 0.0 0.0 0.00 0.00 0.00 66 1018.6
20260904143015 88 263 0.0 0.0 0.00 0.00 0.00 66 1018.6
20260904142515 88 155 0.0 0.0 0.00 0.00 0.00 68 1018.5
20260904142008 87 155 0.0 0.0 0.00 0.00 0.00 70 1018.5
20260904141533 87 157 0.0 0.0 0.00 0.00 0.00 71 1018.5
20260904141011 87 157 0.0 0.0 0.00 0.00 0.00 71 1018.5
20260904140513 86 157 0.0 0.0 0.00 0.00 0.00 71 1018.6
20260904140046 86 157 0.0 0.0 0.00 0.00 0.00 72 1018.6
20260904135515 85 157 0.0 0.0 0.00 0.00 0.00 74 1018.6
20260904135014 84 157 0.0 0.0 0.00 0.00 0.00 78 1018.6
20260904134533 82 157 0.0 0.0 0.00 0.00 0.00 83 1018.5
20260904134015 80 157 0.0 0.0 0.00 0.00 0.00 86 1018.6
20260904133514 79 157 0.0 0.0 0.00 0.00 0.00 88 1018.5
20260904133033 79 157 0.0 0.0 0.00 0.00 0.00 90 1018.5
20260904132519 78 157 0.0 0.0 0.00 0.00 0.00 91 1018.5
20260904132024 77 157 0.0 0.0 0.00 0.00 0.00 91 1018.6
20260904131530 76 157 0.0 0.0 0.00 0.00 0.00 93 1018.6
20260904131012 75 157 0.0 0.0 0.00 0.00 0.00 94 1018.5
20260904130515 75 157 0.0 0.0 0.00 0.00 0.00 95 1018.5
20260904130003 74 157 0.0 0.0 0.00 0.00 0.00 96 1018.5
20260904125503 74 157 0.0 0.0 0.00 0.00 0.00 96 1018.5
20260904125005 73 57 0.0 0.0 0.00 0.00 0.00 96 1018.4
20260904124504 73 57 0.0 0.0 0.00 0.00 0.00 96 1018.4
20260904124003 72 57 0.0 0.0 0.00 0.00 0.00 96 1018.4
20260904123503 72 57 0.0 0.0 0.00 0.00 0.00 96 1018.4
20260904123007 71 58 0.0 0.0 0.00 0.00 0.00 95 1018.4
20260904122505 71 58 0.0 0.0 0.00 0.00 0.00 95 1018.4
20260904122008 71 57 0.0 0.0 0.00 0.00 0.00 95 1018.4
20260904121514 71 57 0.0 0.0 0.00 0.00 0.00 95 1018.4
20260904121009 70 57 0.0 0.0 0.00 0.00 0.00 95 1018.4
20260904120502 70 58 0.0 0.0 0.00 0.00 0.00 94 1018.4
20260904120010 70 57 0.0 1.0 0.00 0.00 0.00 94 1018.4
20260904115502 70 58 0.0 1.0 0.00 0.00 0.00 93 1018.4
20260904115003 70 45 0.0 0.0 0.00 0.00 0.00 93 1018.3
20260904114511 69 149 0.0 0.0 0.00 0.00 0.00 93 1018.2
20260904114003 69 156 0.0 0.0 0.00 0.00 0.00 93 1018.2
20260904113503 69 115 0.0 0.0 0.00 0.00 0.00 93 1018.1
20260904113014 69 115 0.0 0.0 0.00 0.00 0.00 93 1018.1
20260904112502 70 115 0.0 0.0 0.00 0.00 0.00 93 1018.0
20260904112005 70 115 0.0 0.0 0.00 0.00 0.00 93 1017.9
20260904111513 70 115 0.0 0.0 0.00 0.00 0.00 93 1017.9
20260904111005 69 115 0.0 0.0 0.00 0.00 0.00 93 1017.8
20260904110507 70 115 0.0 0.0 0.00 0.00 0.00 93 1017.7
20260904110020 70 115 0.0 0.0 0.00 0.00 0.00 93 1017.7
20260904105510 70 115 0.0 0.0 0.00 0.00 0.00 93 1017.7
20260904105010 70 115 0.0 0.0 0.00 0.00 0.00 93 1017.6
20260904104503 70 115 0.0 0.0 0.00 0.00 0.00 93 1017.5
20260904104002 70 115 0.0 0.0 0.00 0.00 0.00 93 1017.5
20260904103502 70 115 0.0 0.0 0.00 0.00 0.00 92 1017.5
20260904103003 70 115 0.0 0.0 0.00 0.00 0.00 92 1017.5
20260904102504 70 115 0.0 0.0 0.00 0.00 0.00 92 1017.4
20260904102003 70 115 0.0 0.0 0.00 0.00 0.00 92 1017.4
20260904101510 70 115 0.0 0.0 0.00 0.00 0.00 92 1017.5
20260904101003 70 115 0.0 0.0 0.00 0.00 0.00 92 1017.4
20260904100506 70 115 0.0 0.0 0.00 0.00 0.00 92 1017.3
20260904100014 70 115 0.0 0.0 0.00 0.00 0.00 92 1017.2
20260904095506 70 115 0.0 0.0 0.00 0.00 0.00 92 1017.2
20260904095010 70 115 0.0 0.0 0.00 0.00 0.00 92 1017.2
20260904094535 70 115 0.0 0.0 0.00 0.00 0.00 92 1017.2
20260904094011 70 115 0.0 0.0 0.00 0.00 0.00 92 1017.1
20260904093514 70 115 0.0 0.0 0.00 0.00 0.00 91 1017.1
20260904093003 70 115 0.0 0.0 0.00 0.00 0.00 91 1017.0
20260904092502 70 115 0.0 0.0 0.00 0.00 0.00 91 1017.1
20260904092006 70 115 0.0 0.0 0.00 0.00 0.00 91 1017.1
20260904091508 70 115 0.0 0.0 0.00 0.00 0.00 91 1017.2
20260904091005 70 115 0.0 0.0 0.00 0.00 0.00 91 1017.1
20260904090503 71 115 0.0 0.0 0.00 0.00 0.00 91 1017.1
20260904090015 71 115 0.0 0.0 0.00 0.00 0.00 91 1017.1
20260904085508 71 115 0.0 0.0 0.00 0.00 0.00 91 1017.0
20260904085006 71 115 0.0 0.0 0.00 0.00 0.00 91 1017.1
20260904084520 71 115 0.0 0.0 0.00 0.00 0.00 91 1017.1
20260904084009 71 115 0.0 0.0 0.00 0.00 0.00 91 1017.1
20260904083511 71 115 0.0 0.0 0.00 0.00 0.00 91 1017.0
20260904083026 71 115 0.0 0.0 0.00 0.00 0.00 90 1017.0
20260904082511 71 115 0.0 0.0 0.00 0.00 0.00 90 1017.0
20260904082012 71 115 0.0 0.0 0.00 0.00 0.00 90 1016.9
20260904081528 71 115 0.0 0.0 0.00 0.00 0.00 90 1016.8
20260904081003 71 115 0.0 0.0 0.00 0.00 0.00 90 1016.9
20260904080503 71 115 0.0 0.0 0.00 0.00 0.00 90 1016.8
20260904080012 71 115 0.0 0.0 0.00 0.00 0.00 90 1016.8
20260904075507 71 115 0.0 0.0 0.00 0.00 0.00 90 1016.8
20260904075003 71 115 0.0 0.0 0.00 0.00 0.00 90 1016.8
20260904074517 71 115 0.0 0.0 0.00 0.00 0.00 90 1016.8
20260904074007 71 115 0.0 0.0 0.00 0.00 0.00 89 1016.8
20260904073511 72 115 0.0 0.0 0.00 0.00 0.00 89 1016.8
20260904073021 72 115 0.0 0.0 0.00 0.00 0.00 89 1016.8
20260904072509 72 115 0.0 0.0 0.00 0.00 0.00 89 1016.8
20260904072012 72 115 0.0 0.0 0.00 0.00 0.00 89 1016.9
20260904071527 72 115 0.0 0.0 0.00 0.00 0.00 89 1016.8
20260904071015 72 115 0.0 0.0 0.00 0.00 0.00 89 1016.8
20260904070517 72 115 0.0 0.0 0.00 0.00 0.00 89 1016.8
20260904070029 72 115 0.0 0.0 0.00 0.00 0.00 89 1016.9
20260904065520 72 115 0.0 0.0 0.00 0.00 0.00 88 1017.0
20260904065005 72 115 0.0 0.0 0.00 0.00 0.00 88 1017.0
20260904064520 73 115 0.0 0.0 0.00 0.00 0.00 88 1017.0
20260904064007 73 115 0.0 0.0 0.00 0.00 0.00 89 1017.0
20260904063507 73 115 0.0 0.0 0.00 0.00 0.00 88 1017.0
20260904063025 73 115 0.0 0.0 0.00 0.00 0.00 88 1017.1
20260904062508 73 115 0.0 0.0 0.00 0.00 0.00 88 1017.2
20260904062010 73 115 0.0 0.0 0.00 0.00 0.00 88 1017.1
20260904061536 73 115 0.0 0.0 0.00 0.00 0.00 88 1017.2
20260904061003 73 115 0.0 0.0 0.00 0.00 0.00 88 1017.3
20260904060504 73 115 0.0 0.0 0.00 0.00 0.00 87 1017.4
20260904060004 73 115 0.0 0.0 0.00 0.00 0.00 87 1017.4
20260904055504 73 115 0.0 0.0 0.00 0.00 0.00 87 1017.3
20260904055002 73 115 0.0 0.0 0.00 0.00 0.00 87 1017.4
20260904054510 74 115 0.0 0.0 0.00 0.00 0.00 87 1017.5
20260904054003 74 115 0.0 0.0 0.00 0.00 0.00 87 1017.5
20260904053503 74 115 0.0 0.0 0.00 0.00 0.00 86 1017.5
20260904053014 74 115 0.0 0.0 0.00 0.00 0.00 86 1017.5
20260904052508 74 115 0.0 0.0 0.00 0.00 0.00 86 1017.6
20260904052008 74 115 0.0 0.0 0.00 0.00 0.00 86 1017.6
20260904051504 74 115 0.0 0.0 0.00 0.00 0.00 86 1017.7
20260904051002 74 115 0.0 0.0 0.00 0.00 0.00 86 1017.7
20260904050502 74 115 0.0 0.0 0.00 0.00 0.00 86 1017.6
20260904050004 75 115 0.0 0.0 0.00 0.00 0.00 86 1017.6
20260904045503 75 115 0.0 0.0 0.00 0.00 0.00 86 1017.6
20260904045004 75 115 0.0 0.0 0.00 0.00 0.00 86 1017.7
20260904044508 75 115 0.0 0.0 0.00 0.00 0.00 85 1017.6
20260904044002 75 115 0.0 0.0 0.00 0.00 0.00 85 1017.7
20260904043503 75 115 0.0 0.0 0.00 0.00 0.00 86 1017.8
20260904043015 75 115 0.0 0.0 0.00 0.00 0.00 85 1017.7
20260904042509 75 115 0.0 0.0 0.00 0.00 0.00 85 1017.7
20260904042007 75 115 0.0 0.0 0.00 0.00 0.00 85 1017.8
20260904041521 76 115 0.0 1.0 0.00 0.00 0.00 85 1017.7
20260904041007 76 115 0.0 1.0 0.00 0.00 0.00 85 1017.8
20260904040509 76 115 0.0 0.0 0.00 0.00 0.00 85 1017.9
20260904040037 76 115 0.0 0.0 0.00 0.00 0.00 85 1017.9
20260904035503 76 115 0.0 2.0 0.00 0.00 0.00 84 1017.9
20260904035003 76 115 0.0 2.0 0.00 0.00 0.00 84 1017.8
20260904034503 76 115 0.0 0.0 0.00 0.00 0.00 84 1017.9
20260904034003 76 115 0.0 0.0 0.00 0.00 0.00 84 1017.9
20260904033503 77 115 0.0 0.0 0.00 0.00 0.00 84 1017.9
20260904033009 77 115 0.0 0.0 0.00 0.00 0.00 83 1017.9
20260904032503 77 115 0.0 2.0 0.00 0.00 0.00 83 1017.9
20260904032004 77 115 0.0 2.0 0.00 0.00 0.00 83 1017.9
20260904031520 77 115 0.0 2.0 0.00 0.00 0.00 83 1017.9
20260904031007 77 115 0.0 2.0 0.00 0.00 0.00 83 1017.9
20260904030508 77 115 0.0 1.0 0.00 0.00 0.00 83 1018.0
20260904030020 77 115 0.0 1.0 0.00 0.00 0.00 83 1018.0
20260904025508 78 115 0.0 2.0 0.00 0.00 0.00 83 1018.0
20260904025012 78 115 0.0 2.0 0.00 0.00 0.00 83 1018.0
20260904024526 78 115 0.0 0.0 0.00 0.00 0.00 83 1018.1
20260904024003 78 115 0.0 2.0 0.00 0.00 0.00 83 1018.0
20260904023504 78 115 0.0 3.0 0.00 0.00 0.00 83 1017.9
20260904023012 78 115 1.0 3.0 0.00 0.00 0.00 83 1017.8
20260904022505 78 115 0.0 1.0 0.00 0.00 0.00 83 1017.8
20260904022003 78 115 0.0 1.0 0.00 0.00 0.00 82 1017.9
20260904021525 78 115 0.0 2.0 0.00 0.00 0.00 82 1017.9
20260904021007 78 115 1.0 2.0 0.00 0.00 0.00 82 1017.9
20260904020507 79 115 0.0 2.0 0.00 0.00 0.00 82 1017.9
20260904020016 79 115 0.0 3.0 0.00 0.00 0.00 82 1017.8
20260904015510 79 115 1.0 3.0 0.00 0.00 0.00 81 1017.8
20260904015011 79 115 2.0 3.0 0.00 0.00 0.00 81 1017.7
20260904014523 80 115 2.0 3.0 0.00 0.00 0.00 80 1017.6
20260904014011 80 115 2.0 3.0 0.00 0.00 0.00 79 1017.6
20260904013511 81 115 2.0 3.0 0.00 0.00 0.00 78 1017.6
20260904013028 81 115 0.0 2.0 0.00 0.00 0.00 78 1017.5
20260904012513 81 115 0.0 2.0 0.00 0.00 0.00 78 1017.6
20260904012003 81 115 0.0 3.0 0.00 0.00 0.00 78 1017.5
20260904011509 81 115 2.0 3.0 0.00 0.00 0.00 78 1017.4
20260904011005 82 115 0.0 1.0 0.00 0.00 0.00 77 1017.3
20260904010503 82 115 0.0 2.0 0.00 0.00 0.00 77 1017.2
20260904010014 82 115 0.0 2.0 0.00 0.00 0.00 76 1017.1
20260904005505 83 115 0.0 0.0 0.00 0.00 0.00 76 1017.1
20260904005011 83 115 0.0 0.0 0.00 0.00 0.00 75 1017.0
20260904004523 83 115 0.0 1.0 0.00 0.00 0.00 75 1017.0
20260904004008 84 115 0.0 2.0 0.00 0.00 0.00 74 1016.9
20260904003511 84 115 0.0 2.0 0.00 0.00 0.00 73 1016.7
20260904003029 85 115 0.0 2.0 0.00 0.00 0.00 72 1016.7
20260904002513 85 115 0.0 2.0 0.00 0.00 0.00 71 1016.7
20260904002014 86 115 1.0 2.0 0.00 0.00 0.00 70 1016.7
20260904001550 86 115 0.0 0.0 0.00 0.00 0.00 70 1016.6
20260904001015 87 115 0.0 0.0 0.00 0.00 0.00 69 1016.5
20260904000520 87 115 0.0 1.0 0.00 0.00 0.00 68 1016.3
20260904000010 87 115 0.0 3.0 0.00 0.00 0.00 68 1016.3
20260903235503 88 115 0.0 3.0 0.00 0.00 0.00 67 1016.3
20260903235004 88 115 2.0 3.0 0.00 0.00 0.00 67 1016.2
20260903234516 89 115 0.0 3.0 0.00 0.00 0.00 66 1016.2
20260903234010 90 115 0.0 4.0 0.00 0.00 0.00 64 1016.1
20260903233510 91 115 1.0 4.0 0.00 0.00 0.00 62 1016.1
20260903233033 93 115 2.0 4.0 0.00 0.00 0.00 61 1016.1
20260903232511 95 111 1.0 4.0 0.00 0.00 0.00 58 1016.1
20260903232013 96 55 1.0 3.0 0.00 0.00 0.00 56 1016.1
20260903231525 95 32 0.0 0.0 0.00 0.00 0.00 55 1016.0
20260903231016 95 290 0.0 0.0 0.00 0.00 0.00 55 1015.9
20260903230519 95 290 0.0 0.0 0.00 0.00 0.00 54 1015.9
20260903230033 95 290 0.0 0.0 0.00 0.00 0.00 55 1015.9
20260903225516 94 290 0.0 0.0 0.00 0.00 0.00 56 1015.9
20260903225019 94 290 0.0 0.0 0.00 0.00 0.00 55 1015.9
20260903224522 94 290 0.0 3.0 0.00 0.00 0.00 55 1015.9
20260903224009 94 290 0.0 3.0 0.00 0.00 0.00 53 1015.9
20260903223508 95 290 1.0 3.0 0.00 0.00 0.00 52 1015.9
20260903223020 95 290 0.0 3.0 0.00 0.00 0.00 51 1015.9
20260903222511 95 288 1.0 4.0 0.00 0.00 0.00 54 1015.9
20260903222011 95 58 2.0 4.0 0.00 0.00 0.00 49 1015.9
20260903221527 96 347 1.0 5.0 0.00 0.00 0.00 51 1015.8
20260903221012 96 338 2.0 5.0 0.00 0.00 0.00 50 1015.9
20260903220515 95 34 3.0 5.0 0.00 0.00 0.00 49 1016.0
20260903220028 95 273 0.0 3.0 0.00 0.00 0.00 55 1016.0
20260903215516 94 273 1.0 3.0 0.00 0.00 0.00 56 1016.0
20260903215015 92 273 0.0 0.0 0.00 0.00 0.00 62 1016.0
20260903214534 91 273 0.0 0.0 0.00 0.00 0.00 62 1016.0
20260903214016 91 273 0.0 0.0 0.00 0.00 0.00 61 1016.0
20260903213518 91 273 0.0 1.0 0.00 0.00 0.00 60 1016.0
20260903213047 91 273 0.0 2.0 0.00 0.00 0.00 60 1016.1
20260903212509 92 183 0.0 2.0 0.00 0.00 0.00 57 1016.1
20260903212011 93 265 1.0 2.0 0.00 0.00 0.00 58 1016.2
20260903211523 93 34 0.0 2.0 0.00 0.00 0.00 54 1016.1
20260903211012 94 34 0.0 2.0 0.00 0.00 0.00 56 1016.1
20260903210513 95 34 0.0 5.0 0.00 0.00 0.00 50 1016.2
20260903210029 96 34 2.0 5.0 0.00 0.00 0.00 47 1016.2
20260903205517 97 315 1.0 3.0 0.00 0.00 0.00 47 1016.2
20260903205012 94 260 1.0 2.0 0.00 0.00 0.00 52 1016.3
20260903204528 92 260 0.0 1.0 0.00 0.00 0.00 60 1016.4
20260903204014 92 225 0.0 1.0 0.00 0.00 0.00 57 1016.4
20260903203514 93 333 0.0 4.0 0.00 0.00 0.00 56 1016.4
20260903203037 93 31 0.0 4.0 0.00 0.00 0.00 57 1016.5
20260903202516 93 31 1.0 4.0 0.00 0.00 0.00 53 1016.5
20260903202006 93 355 0.0 3.0 0.00 0.00 0.00 54 1016.5
20260903201518 94 355 2.0 3.0 0.00 0.00 0.00 55 1016.6
20260903201007 94 355 1.0 4.0 0.00 0.00 0.00 52 1016.7
20260903200511 95 355 2.0 5.0 0.00 0.00 0.00 50 1016.8
20260903200024 96 36 2.0 5.0 0.00 0.00 0.00 48 1016.8
20260903195512 96 42 1.0 4.0 0.00 0.00 0.00 48 1016.9
20260903195005 96 102 1.0 9.0 0.00 0.00 0.00 50 1017.0
20260903194503 97 11 3.0 9.0 0.00 0.00 0.00 46 1017.0
20260903194004 98 26 4.0 9.0 0.00 0.00 0.00 46 1016.9
20260903193502 97 224 2.0 5.0 0.00 0.00 0.00 47 1017.0
20260903193015 97 293 0.0 6.0 0.00 0.00 0.00 48 1017.0
20260903192505 95 292 0.0 6.0 0.00 0.00 0.00 49 1017.1
20260903192005 96 273 1.0 6.0 0.00 0.00 0.00 50 1017.2
20260903191522 96 132 0.0 7.0 0.00 0.00 0.00 47 1017.2
20260903191010 97 139 2.0 7.0 0.00 0.00 0.00 47 1017.3
20260903190508 97 329 2.0 9.0 0.00 0.00 0.00 46 1017.3
20260903190022 97 286 5.0 9.0 0.00 0.00 0.00 46 1017.3
20260903185510 97 5 3.0 8.0 0.00 0.00 0.00 49 1017.3
20260903185012 97 340 3.0 6.0 0.00 0.00 0.00 47 1017.4
20260903184526 97 18 2.0 7.0 0.00 0.00 0.00 48 1017.5
20260903184012 96 9 1.0 7.0 0.00 0.00 0.00 51 1017.7
20260903183515 96 5 3.0 8.0 0.00 0.00 0.00 48 1017.8
20260903183020 95 250 2.0 8.0 0.00 0.00 0.00 52 1017.8
20260903182504 96 238 2.0 7.0 0.00 0.00 0.00 48 1017.9
20260903182004 97 288 2.0 7.0 0.00 0.00 0.00 48 1017.9
20260903181509 97 360 2.0 8.0 0.00 0.00 0.00 50 1018.0
20260903181006 96 329 2.0 8.0 0.00 0.00 0.00 50 1018.1
20260903180504 96 345 2.0 7.0 0.00 0.00 0.00 51 1018.2
20260903180025 94 307 2.0 14.0 0.00 0.00 0.00 54 1018.2
20260903175508 94 26 6.0 14.0 0.00 0.00 0.00 52 1018.3